sat.trackr.live / text

‹ back to catalog

QIANFAN-223

NORAD 69852 · 2026-155E

PAYLOAD ACTIVE UNKNOWN

§ Identity

Operator
Country
PRC
Launch date
2026-07-05
Launch site
WSC
Launch vehicle
Mass (kg)
RCS (m²)

External: N2YO · Heavens-Above · Gunter

§ Orbital elements

Epoch: 2026-09-20T03:34:53.067648Z

Period
106.67 min
Inclination
89.0091°
Eccentricity
0.0034722
Mean motion
13.49929195 rev/d
Perigee alt
1,046.6 km
Apogee alt
1,098.4 km
Semi-major
7,450.7 km
B*
8.9001e-5
RAAN
53.7883°
Arg perigee
12.6540°
Mean anomaly
347.5474°
Rev number
1,066

§ Raw data

QIANFAN-2231 69852U 26155E   26263.14922532  .00000069  00000+0  89001-4 0  99922 69852  89.0091  53.7883 0034722  12.6540 347.5474 13.49929195 10668

JSON: /api/v1/satellites/69852 · /tle

For live sub-satellite position, see the globe view (requires WebGL).

§ Visibility from observer

Set your observer location to see the next 7 days of passes ≥ 10°. The values pass through the URL so the page stays shareable.

No JS? Fill the form by hand. The geolocation button needs JavaScript.